owner,sensor,date,latitude,longitude,air_temperature,qcFlag 
DISL,ioos:station:DISL:PPTA:1,2012-05-01T00:00:00Z,30.2791,-87.5561,25.91,1111122 
DISL,ioos:station:DISL:PPTA:1,2012-05-01T00:30:00Z,30.2791,-87.5561,25.06,1111122 
DISL,ioos:station:DISL:PPTA:1,2012-05-01T01:00:00Z,30.2791,-87.5561,24.83,1111122 
DISL,ioos:station:DISL:PPTA:1,2012-05-01T01:30:00Z,30.2791,-87.5561,24.64,1111122 
DISL,ioos:station:DISL:PPTA:1,2012-05-01T02:00:00Z,30.2791,-87.5561,24.4,1111122 
DISL,ioos:station:DISL:PPTA:1,2012-05-01T02:30:00Z,30.2791,-87.5561,24.57,1111122 
DISL,ioos:station:DISL:PPTA:1,2012-05-01T03:00:00Z,30.2791,-87.5561,24.51,1111122 
DISL,ioos:station:DISL:PPTA:1,2012-05-01T03:30:00Z,30.2791,-87.5561,24.3,1111122 
DISL,ioos:station:DISL:PPTA:1,2012-05-01T04:00:00Z,30.2791,-87.5561,24.16,1111122 
DISL,ioos:station:DISL:PPTA:1,2012-05-01T04:30:00Z,30.2791,-87.5561,24.06,1111122 
DISL,ioos:station:DISL:PPTA:1,2012-05-01T05:00:00Z,30.2791,-87.5561,23.42,1111122 
DISL,ioos:station:DISL:PPTA:1,2012-05-01T05:30:00Z,30.2791,-87.5561,23.52,1111122 
DISL,ioos:station:DISL:PPTA:1,2012-05-01T06:00:00Z,30.2791,-87.5561,23.33,1111122 
DISL,ioos:station:DISL:PPTA:1,2012-05-01T06:30:00Z,30.2791,-87.5561,22.89,1111122 
DISL,ioos:station:DISL:PPTA:1,2012-05-01T07:00:00Z,30.2791,-87.5561,22.89,1111122 
DISL,ioos:station:DISL:PPTA:1,2012-05-01T07:30:00Z,30.2791,-87.5561,23.09,1111122 
DISL,ioos:station:DISL:PPTA:1,2012-05-01T08:00:00Z,30.2791,-87.5561,22.58,1111122 
DISL,ioos:station:DISL:PPTA:1,2012-05-01T08:30:00Z,30.2791,-87.5561,22.82,1111122 
DISL,ioos:station:DISL:PPTA:1,2012-05-01T09:00:00Z,30.2791,-87.5561,23.06,1111122 
DISL,ioos:station:DISL:PPTA:1,2012-05-01T09:30:00Z,30.2791,-87.5561,23.37,1111122 
DISL,ioos:station:DISL:PPTA:1,2012-05-01T10:00:00Z,30.2791,-87.5561,23.06,1111122 
DISL,ioos:station:DISL:PPTA:1,2012-05-01T10:30:00Z,30.2791,-87.5561,23.33,1111122 
DISL,ioos:station:DISL:PPTA:1,2012-05-01T11:00:00Z,30.2791,-87.5561,22.71,1111122 
DISL,ioos:station:DISL:PPTA:1,2012-05-01T11:30:00Z,30.2791,-87.5561,23.16,1111122 
DISL,ioos:station:DISL:PPTA:1,2012-05-01T12:00:00Z,30.2791,-87.5561,24.75,1111122 
DISL,ioos:station:DISL:PPTA:1,2012-05-01T12:30:00Z,30.2791,-87.5561,24.98,1111122 
DISL,ioos:station:DISL:PPTA:1,2012-05-01T13:00:00Z,30.2791,-87.5561,24.86,1111122 
DISL,ioos:station:DISL:PPTA:1,2012-05-01T13:30:00Z,30.2791,-87.5561,24.65,1111122 
DISL,ioos:station:DISL:PPTA:1,2012-05-01T14:00:00Z,30.2791,-87.5561,24.75,1111122 
DISL,ioos:station:DISL:PPTA:1,2012-05-01T14:30:00Z,30.2791,-87.5561,24.91,1111122 
DISL,ioos:station:DISL:PPTA:1,2012-05-01T15:00:00Z,30.2791,-87.5561,24.97,1111122 
DISL,ioos:station:DISL:PPTA:1,2012-05-01T15:30:00Z,30.2791,-87.5561,24.73,1111122 
DISL,ioos:station:DISL:PPTA:1,2012-05-01T16:00:00Z,30.2791,-87.5561,24.9,1111122 
DISL,ioos:station:DISL:PPTA:1,2012-05-01T16:30:00Z,30.2791,-87.5561,25.89,1111122 
DISL,ioos:station:DISL:PPTA:1,2012-05-01T17:00:00Z,30.2791,-87.5561,25.78,1111122 
DISL,ioos:station:DISL:PPTA:1,2012-05-01T17:30:00Z,30.2791,-87.5561,25.51,1111122 
DISL,ioos:station:DISL:PPTA:1,2012-05-01T18:00:00Z,30.2791,-87.5561,25.5,1111122 
DISL,ioos:station:DISL:PPTA:1,2012-05-01T18:30:00Z,30.2791,-87.5561,25.37,1111122 
DISL,ioos:station:DISL:PPTA:1,2012-05-01T19:00:00Z,30.2791,-87.5561,25.45,1111122 
DISL,ioos:station:DISL:PPTA:1,2012-05-01T19:30:00Z,30.2791,-87.5561,25.76,1111122 
DISL,ioos:station:DISL:PPTA:1,2012-05-01T20:00:00Z,30.2791,-87.5561,25.89,1111122 
DISL,ioos:station:DISL:PPTA:1,2012-05-01T20:30:00Z,30.2791,-87.5561,25.59,1111122 
DISL,ioos:station:DISL:PPTA:1,2012-05-01T21:00:00Z,30.2791,-87.5561,25.72,1111122 
DISL,ioos:station:DISL:PPTA:1,2012-05-01T21:30:00Z,30.2791,-87.5561,25.79,1111122 
DISL,ioos:station:DISL:PPTA:1,2012-05-01T22:00:00Z,30.2791,-87.5561,25.39,1111122 
DISL,ioos:station:DISL:PPTA:1,2012-05-01T22:30:00Z,30.2791,-87.5561,25.54,1111122 
DISL,ioos:station:DISL:PPTA:1,2012-05-01T23:00:00Z,30.2791,-87.5561,25.17,1111122 
DISL,ioos:station:DISL:PPTA:1,2012-05-01T23:30:00Z,30.2791,-87.5561,25.06,1111122 
DISL,ioos:station:DISL:PPTA:1,2012-05-02T00:00:00Z,30.2791,-87.5561,24.31,1111122 
DISL,ioos:station:DISL:PPTA:1,2012-05-02T00:30:00Z,30.2791,-87.5561,24.15,1111122 
DISL,ioos:station:DISL:PPTA:1,2012-05-02T01:00:00Z,30.2791,-87.5561,24.2,1111122 
DISL,ioos:station:DISL:PPTA:1,2012-05-02T01:30:00Z,30.2791,-87.5561,24.1,1111122 
DISL,ioos:station:DISL:PPTA:1,2012-05-02T02:00:00Z,30.2791,-87.5561,24.2,1111122 
DISL,ioos:station:DISL:PPTA:1,2012-05-02T02:30:00Z,30.2791,-87.5561,24.27,1111122 
DISL,ioos:station:DISL:PPTA:1,2012-05-02T03:00:00Z,30.2791,-87.5561,24.44,1111122 
DISL,ioos:station:DISL:PPTA:1,2012-05-02T03:30:00Z,30.2791,-87.5561,24.57,1111122 
DISL,ioos:station:DISL:PPTA:1,2012-05-02T04:00:00Z,30.2791,-87.5561,24.54,1111122 
DISL,ioos:station:DISL:PPTA:1,2012-05-02T04:30:00Z,30.2791,-87.5561,24.78,1111122 
DISL,ioos:station:DISL:PPTA:1,2012-05-02T05:00:00Z,30.2791,-87.5561,24.64,1111122 
DISL,ioos:station:DISL:PPTA:1,2012-05-02T05:30:00Z,30.2791,-87.5561,24.71,1111122 
DISL,ioos:station:DISL:PPTA:1,2012-05-02T06:00:00Z,30.2791,-87.5561,24.64,1111122 
DISL,ioos:station:DISL:PPTA:1,2012-05-02T06:30:00Z,30.2791,-87.5561,24.64,1111122 
DISL,ioos:station:DISL:PPTA:1,2012-05-02T07:00:00Z,30.2791,-87.5561,24.74,1111122 
DISL,ioos:station:DISL:PPTA:1,2012-05-02T07:30:00Z,30.2791,-87.5561,24.68,1111122 
DISL,ioos:station:DISL:PPTA:1,2012-05-02T08:00:00Z,30.2791,-87.5561,24.64,1111122 
DISL,ioos:station:DISL:PPTA:1,2012-05-02T08:30:00Z,30.2791,-87.5561,24.68,1111122 
DISL,ioos:station:DISL:PPTA:1,2012-05-02T09:00:00Z,30.2791,-87.5561,24.68,1111122 
DISL,ioos:station:DISL:PPTA:1,2012-05-02T09:30:00Z,30.2791,-87.5561,24.64,1111122 
DISL,ioos:station:DISL:PPTA:1,2012-05-02T10:00:00Z,30.2791,-87.5561,24.47,1111122 
DISL,ioos:station:DISL:PPTA:1,2012-05-02T10:30:00Z,30.2791,-87.5561,24.37,1111122 
DISL,ioos:station:DISL:PPTA:1,2012-05-02T11:00:00Z,30.2791,-87.5561,24.2,1111122 
DISL,ioos:station:DISL:PPTA:1,2012-05-02T11:30:00Z,30.2791,-87.5561,24.23,1111122 
DISL,ioos:station:DISL:PPTA:1,2012-05-02T12:00:00Z,30.2791,-87.5561,24.44,1111122 
DISL,ioos:station:DISL:PPTA:1,2012-05-02T12:30:00Z,30.2791,-87.5561,24.66,1111122 
DISL,ioos:station:DISL:PPTA:1,2012-05-02T13:00:00Z,30.2791,-87.5561,24.69,1111122 
DISL,ioos:station:DISL:PPTA:1,2012-05-02T13:30:00Z,30.2791,-87.5561,25.12,1111122 
DISL,ioos:station:DISL:PPTA:1,2012-05-02T14:00:00Z,30.2791,-87.5561,24.91,1111122 
DISL,ioos:station:DISL:PPTA:1,2012-05-02T14:30:00Z,30.2791,-87.5561,25.02,1111122 
DISL,ioos:station:DISL:PPTA:1,2012-05-02T15:00:00Z,30.2791,-87.5561,25.45,1111122 
DISL,ioos:station:DISL:PPTA:1,2012-05-02T15:30:00Z,30.2791,-87.5561,25.18,1111122 
DISL,ioos:station:DISL:PPTA:1,2012-05-02T16:00:00Z,30.2791,-87.5561,24.84,1111122 
DISL,ioos:station:DISL:PPTA:1,2012-05-02T16:30:00Z,30.2791,-87.5561,24.71,1111122 
DISL,ioos:station:DISL:PPTA:1,2012-05-02T17:00:00Z,30.2791,-87.5561,24.76,1111122 
DISL,ioos:station:DISL:PPTA:1,2012-05-02T17:30:00Z,30.2791,-87.5561,24.55,1111122 
DISL,ioos:station:DISL:PPTA:1,2012-05-02T18:00:00Z,30.2791,-87.5561,24.59,1111122 
DISL,ioos:station:DISL:PPTA:1,2012-05-02T18:30:00Z,30.2791,-87.5561,24.01,1111122 
DISL,ioos:station:DISL:PPTA:1,2012-05-02T19:00:00Z,30.2791,-87.5561,24.12,1111122 
DISL,ioos:station:DISL:PPTA:1,2012-05-02T19:30:00Z,30.2791,-87.5561,23.96,1111122 
DISL,ioos:station:DISL:PPTA:1,2012-05-02T20:00:00Z,30.2791,-87.5561,24.13,1111122 
DISL,ioos:station:DISL:PPTA:1,2012-05-02T20:30:00Z,30.2791,-87.5561,23.99,1111122 
DISL,ioos:station:DISL:PPTA:1,2012-05-02T21:00:00Z,30.2791,-87.5561,23.65,1111122 
DISL,ioos:station:DISL:PPTA:1,2012-05-02T21:30:00Z,30.2791,-87.5561,23.65,1111122 
DISL,ioos:station:DISL:PPTA:1,2012-05-02T22:00:00Z,30.2791,-87.5561,23.65,1111122 
DISL,ioos:station:DISL:PPTA:1,2012-05-02T22:30:00Z,30.2791,-87.5561,23.55,1111122 
DISL,ioos:station:DISL:PPTA:1,2012-05-02T23:00:00Z,30.2791,-87.5561,23.55,1111122 
DISL,ioos:station:DISL:PPTA:1,2012-05-02T23:30:00Z,30.2791,-87.5561,23.62,1111122 
DISL,ioos:station:DISL:PPTA:1,2012-05-03T00:00:00Z,30.2791,-87.5561,23.65,1111122 
DISL,ioos:station:DISL:PPTA:1,2012-05-03T00:30:00Z,30.2791,-87.5561,23.58,1111122 
DISL,ioos:station:DISL:PPTA:1,2012-05-03T01:00:00Z,30.2791,-87.5561,23.72,1111122 
DISL,ioos:station:DISL:PPTA:1,2012-05-03T01:30:00Z,30.2791,-87.5561,23.69,1111122 
DISL,ioos:station:DISL:PPTA:1,2012-05-03T02:00:00Z,30.2791,-87.5561,23.55,1111122 
DISL,ioos:station:DISL:PPTA:1,2012-05-03T02:30:00Z,30.2791,-87.5561,23.55,1111122 
DISL,ioos:station:DISL:PPTA:1,2012-05-03T03:00:00Z,30.2791,-87.5561,23.62,1111122 
DISL,ioos:station:DISL:PPTA:1,2012-05-03T03:30:00Z,30.2791,-87.5561,23.48,1111122 
DISL,ioos:station:DISL:PPTA:1,2012-05-03T04:00:00Z,30.2791,-87.5561,23.66,1111122 
DISL,ioos:station:DISL:PPTA:1,2012-05-03T04:30:00Z,30.2791,-87.5561,23.45,1111122 
DISL,ioos:station:DISL:PPTA:1,2012-05-03T05:00:00Z,30.2791,-87.5561,23.52,1111122 
DISL,ioos:station:DISL:PPTA:1,2012-05-03T05:30:00Z,30.2791,-87.5561,23.21,1111122 
DISL,ioos:station:DISL:PPTA:1,2012-05-03T06:00:00Z,30.2791,-87.5561,23.01,1111122 
DISL,ioos:station:DISL:PPTA:1,2012-05-03T06:30:00Z,30.2791,-87.5561,22.7,1111122 
DISL,ioos:station:DISL:PPTA:1,2012-05-03T07:00:00Z,30.2791,-87.5561,22.54,1111122 
DISL,ioos:station:DISL:PPTA:1,2012-05-03T07:30:00Z,30.2791,-87.5561,22.54,1111122 
DISL,ioos:station:DISL:PPTA:1,2012-05-03T08:00:00Z,30.2791,-87.5561,22.75,1111122 
DISL,ioos:station:DISL:PPTA:1,2012-05-03T08:30:00Z,30.2791,-87.5561,22.92,1111122 
DISL,ioos:station:DISL:PPTA:1,2012-05-03T09:00:00Z,30.2791,-87.5561,23.02,1111122 
DISL,ioos:station:DISL:PPTA:1,2012-05-03T09:30:00Z,30.2791,-87.5561,23.16,1111122 
DISL,ioos:station:DISL:PPTA:1,2012-05-03T10:00:00Z,30.2791,-87.5561,23.26,1111122 
DISL,ioos:station:DISL:PPTA:1,2012-05-03T10:30:00Z,30.2791,-87.5561,23.42,1111122 
DISL,ioos:station:DISL:PPTA:1,2012-05-03T11:00:00Z,30.2791,-87.5561,23.69,1111122 
DISL,ioos:station:DISL:PPTA:1,2012-05-03T11:30:00Z,30.2791,-87.5561,23.66,1111122 
DISL,ioos:station:DISL:PPTA:1,2012-05-03T12:00:00Z,30.2791,-87.5561,23.93,1111122 
DISL,ioos:station:DISL:PPTA:1,2012-05-03T12:30:00Z,30.2791,-87.5561,23.48,1111122 
DISL,ioos:station:DISL:PPTA:1,2012-05-03T13:00:00Z,30.2791,-87.5561,23.59,1111122 
DISL,ioos:station:DISL:PPTA:1,2012-05-03T13:30:00Z,30.2791,-87.5561,22.19,1111122 
DISL,ioos:station:DISL:PPTA:1,2012-05-03T14:00:00Z,30.2791,-87.5561,22.78,1111122 
DISL,ioos:station:DISL:PPTA:1,2012-05-03T14:30:00Z,30.2791,-87.5561,23.26,1111122 
DISL,ioos:station:DISL:PPTA:1,2012-05-03T15:00:00Z,30.2791,-87.5561,23.76,1111122 
DISL,ioos:station:DISL:PPTA:1,2012-05-03T15:30:00Z,30.2791,-87.5561,24.54,1111122 
DISL,ioos:station:DISL:PPTA:1,2012-05-03T16:00:00Z,30.2791,-87.5561,24.55,1111122 
DISL,ioos:station:DISL:PPTA:1,2012-05-03T16:30:00Z,30.2791,-87.5561,24.65,1111122 
DISL,ioos:station:DISL:PPTA:1,2012-05-03T17:00:00Z,30.2791,-87.5561,24.68,1111122 
DISL,ioos:station:DISL:PPTA:1,2012-05-03T17:30:00Z,30.2791,-87.5561,25.25,1111122 
DISL,ioos:station:DISL:PPTA:1,2012-05-03T18:00:00Z,30.2791,-87.5561,25.31,1111122 
DISL,ioos:station:DISL:PPTA:1,2012-05-03T18:30:00Z,30.2791,-87.5561,25.08,1111122 
DISL,ioos:station:DISL:PPTA:1,2012-05-03T19:00:00Z,30.2791,-87.5561,25.48,1111122 
DISL,ioos:station:DISL:PPTA:1,2012-05-03T19:30:00Z,30.2791,-87.5561,25.31,1111122 
DISL,ioos:station:DISL:PPTA:1,2012-05-03T20:00:00Z,30.2791,-87.5561,25.08,1111122 
DISL,ioos:station:DISL:PPTA:1,2012-05-03T20:30:00Z,30.2791,-87.5561,25.11,1111122 
DISL,ioos:station:DISL:PPTA:1,2012-05-03T21:00:00Z,30.2791,-87.5561,25.04,1111122 
DISL,ioos:station:DISL:PPTA:1,2012-05-03T21:30:00Z,30.2791,-87.5561,25.13,1111122 
DISL,ioos:station:DISL:PPTA:1,2012-05-03T22:00:00Z,30.2791,-87.5561,24.96,1111122 
DISL,ioos:station:DISL:PPTA:1,2012-05-03T22:30:00Z,30.2791,-87.5561,24.76,1111122 
DISL,ioos:station:DISL:PPTA:1,2012-05-03T23:00:00Z,30.2791,-87.5561,24.65,1111122 
DISL,ioos:station:DISL:PPTA:1,2012-05-03T23:30:00Z,30.2791,-87.5561,24.62,1111122 
DISL,ioos:station:DISL:PPTA:1,2012-05-04T00:00:00Z,30.2791,-87.5561,24.25,1111122 
DISL,ioos:station:DISL:PPTA:1,2012-05-04T00:30:00Z,30.2791,-87.5561,24.16,1111122 
DISL,ioos:station:DISL:PPTA:1,2012-05-04T01:00:00Z,30.2791,-87.5561,24.06,1111122 
DISL,ioos:station:DISL:PPTA:1,2012-05-04T01:30:00Z,30.2791,-87.5561,24.06,1111122 
DISL,ioos:station:DISL:PPTA:1,2012-05-04T02:00:00Z,30.2791,-87.5561,23.96,1111122 
DISL,ioos:station:DISL:PPTA:1,2012-05-04T02:30:00Z,30.2791,-87.5561,23.82,1111122 
DISL,ioos:station:DISL:PPTA:1,2012-05-04T03:00:00Z,30.2791,-87.5561,23.79,1111122 
DISL,ioos:station:DISL:PPTA:1,2012-05-04T03:30:00Z,30.2791,-87.5561,23.92,1111122 
DISL,ioos:station:DISL:PPTA:1,2012-05-04T04:00:00Z,30.2791,-87.5561,23.69,1111122 
DISL,ioos:station:DISL:PPTA:1,2012-05-04T04:30:00Z,30.2791,-87.5561,23.45,1111122 
DISL,ioos:station:DISL:PPTA:1,2012-05-04T05:00:00Z,30.2791,-87.5561,23.58,1111122 
DISL,ioos:station:DISL:PPTA:1,2012-05-04T05:30:00Z,30.2791,-87.5561,23.75,1111122 
DISL,ioos:station:DISL:PPTA:1,2012-05-04T06:00:00Z,30.2791,-87.5561,23.62,1111122 
DISL,ioos:station:DISL:PPTA:1,2012-05-04T06:30:00Z,30.2791,-87.5561,23.52,1111122 
DISL,ioos:station:DISL:PPTA:1,2012-05-04T07:00:00Z,30.2791,-87.5561,23.55,1111122 
DISL,ioos:station:DISL:PPTA:1,2012-05-04T07:30:00Z,30.2791,-87.5561,23.48,1111122 
DISL,ioos:station:DISL:PPTA:1,2012-05-04T08:00:00Z,30.2791,-87.5561,23.62,1111122 
DISL,ioos:station:DISL:PPTA:1,2012-05-04T08:30:00Z,30.2791,-87.5561,23.72,1111122 
DISL,ioos:station:DISL:PPTA:1,2012-05-04T09:00:00Z,30.2791,-87.5561,23.69,1111122 
DISL,ioos:station:DISL:PPTA:1,2012-05-04T09:30:00Z,30.2791,-87.5561,23.62,1111122 
DISL,ioos:station:DISL:PPTA:1,2012-05-04T10:00:00Z,30.2791,-87.5561,23.69,1111122 
DISL,ioos:station:DISL:PPTA:1,2012-05-04T10:30:00Z,30.2791,-87.5561,23.76,1111122 
DISL,ioos:station:DISL:PPTA:1,2012-05-04T11:00:00Z,30.2791,-87.5561,23.52,1111122 
DISL,ioos:station:DISL:PPTA:1,2012-05-04T11:30:00Z,30.2791,-87.5561,23.86,1111122 
DISL,ioos:station:DISL:PPTA:1,2012-05-04T12:00:00Z,30.2791,-87.5561,24.1,1111122 
DISL,ioos:station:DISL:PPTA:1,2012-05-04T12:30:00Z,30.2791,-87.5561,24.37,1111122 
DISL,ioos:station:DISL:PPTA:1,2012-05-04T13:00:00Z,30.2791,-87.5561,22.94,1111122 
DISL,ioos:station:DISL:PPTA:1,2012-05-04T14:00:00Z,30.2791,-87.5561,23.07,1111122 
DISL,ioos:station:DISL:PPTA:1,2012-05-04T14:30:00Z,30.2791,-87.5561,23.34,1111122 
DISL,ioos:station:DISL:PPTA:1,2012-05-04T15:00:00Z,30.2791,-87.5561,24.71,1111122 
DISL,ioos:station:DISL:PPTA:1,2012-05-04T15:30:00Z,30.2791,-87.5561,24.99,1111122 
DISL,ioos:station:DISL:PPTA:1,2012-05-04T16:00:00Z,30.2791,-87.5561,25.11,1111122 
DISL,ioos:station:DISL:PPTA:1,2012-05-04T16:30:00Z,30.2791,-87.5561,24.8,1111122 
DISL,ioos:station:DISL:PPTA:1,2012-05-04T17:00:00Z,30.2791,-87.5561,25.01,1111122 
DISL,ioos:station:DISL:PPTA:1,2012-05-04T17:30:00Z,30.2791,-87.5561,24.73,1111122 
DISL,ioos:station:DISL:PPTA:1,2012-05-04T18:00:00Z,30.2791,-87.5561,24.5,1111122 
DISL,ioos:station:DISL:PPTA:1,2012-05-04T18:30:00Z,30.2791,-87.5561,24.97,1111122 
DISL,ioos:station:DISL:PPTA:1,2012-05-04T19:00:00Z,30.2791,-87.5561,24.7,1111122 
DISL,ioos:station:DISL:PPTA:1,2012-05-04T19:30:00Z,30.2791,-87.5561,24.91,1111122 
DISL,ioos:station:DISL:PPTA:1,2012-05-04T20:00:00Z,30.2791,-87.5561,24.77,1111122 
DISL,ioos:station:DISL:PPTA:1,2012-05-04T20:30:00Z,30.2791,-87.5561,25.03,1111122 
DISL,ioos:station:DISL:PPTA:1,2012-05-04T21:00:00Z,30.2791,-87.5561,25.78,1111122 
DISL,ioos:station:DISL:PPTA:1,2012-05-04T21:30:00Z,30.2791,-87.5561,25.33,1111122 
DISL,ioos:station:DISL:PPTA:1,2012-05-04T22:00:00Z,30.2791,-87.5561,25.26,1111122 
DISL,ioos:station:DISL:PPTA:1,2012-05-04T22:30:00Z,30.2791,-87.5561,25.74,1111122 
DISL,ioos:station:DISL:PPTA:1,2012-05-04T23:00:00Z,30.2791,-87.5561,25.37,1111122 
DISL,ioos:station:DISL:PPTA:1,2012-05-04T23:30:00Z,30.2791,-87.5561,25.54,1111122 
DISL,ioos:station:DISL:PPTA:1,2012-05-05T00:00:00Z,30.2791,-87.5561,24.86,1111122 
DISL,ioos:station:DISL:PPTA:1,2012-05-05T00:30:00Z,30.2791,-87.5561,24.55,1111122 
DISL,ioos:station:DISL:PPTA:1,2012-05-05T01:00:00Z,30.2791,-87.5561,24.43,1111122 
DISL,ioos:station:DISL:PPTA:1,2012-05-05T01:30:00Z,30.2791,-87.5561,24.33,1111122 
DISL,ioos:station:DISL:PPTA:1,2012-05-05T02:00:00Z,30.2791,-87.5561,24.3,1111122 
DISL,ioos:station:DISL:PPTA:1,2012-05-05T02:30:00Z,30.2791,-87.5561,24.2,1111122 
DISL,ioos:station:DISL:PPTA:1,2012-05-05T03:00:00Z,30.2791,-87.5561,24.27,1111122 
DISL,ioos:station:DISL:PPTA:1,2012-05-05T03:30:00Z,30.2791,-87.5561,24.2,1111122 
DISL,ioos:station:DISL:PPTA:1,2012-05-05T04:00:00Z,30.2791,-87.5561,24.13,1111122 
DISL,ioos:station:DISL:PPTA:1,2012-05-05T04:30:00Z,30.2791,-87.5561,23.89,1111122 
DISL,ioos:station:DISL:PPTA:1,2012-05-05T05:00:00Z,30.2791,-87.5561,24.03,1111122 
DISL,ioos:station:DISL:PPTA:1,2012-05-05T05:30:00Z,30.2791,-87.5561,24.06,1111122 
DISL,ioos:station:DISL:PPTA:1,2012-05-05T06:00:00Z,30.2791,-87.5561,23.92,1111122 
DISL,ioos:station:DISL:PPTA:1,2012-05-05T06:30:00Z,30.2791,-87.5561,23.89,1111122 
DISL,ioos:station:DISL:PPTA:1,2012-05-05T07:00:00Z,30.2791,-87.5561,23.86,1111122 
DISL,ioos:station:DISL:PPTA:1,2012-05-05T07:30:00Z,30.2791,-87.5561,23.96,1111122 
DISL,ioos:station:DISL:PPTA:1,2012-05-05T08:00:00Z,30.2791,-87.5561,23.89,1111122 
DISL,ioos:station:DISL:PPTA:1,2012-05-05T08:30:00Z,30.2791,-87.5561,23.86,1111122 
DISL,ioos:station:DISL:PPTA:1,2012-05-05T09:00:00Z,30.2791,-87.5561,23.79,1111122 
DISL,ioos:station:DISL:PPTA:1,2012-05-05T09:30:00Z,30.2791,-87.5561,23.79,1111122 
DISL,ioos:station:DISL:PPTA:1,2012-05-05T10:00:00Z,30.2791,-87.5561,23.73,1111122 
DISL,ioos:station:DISL:PPTA:1,2012-05-05T10:30:00Z,30.2791,-87.5561,23.66,1111122 
DISL,ioos:station:DISL:PPTA:1,2012-05-05T11:00:00Z,30.2791,-87.5561,23.7,1111122 
DISL,ioos:station:DISL:PPTA:1,2012-05-05T11:30:00Z,30.2791,-87.5561,22.98,1111122 
DISL,ioos:station:DISL:PPTA:1,2012-05-05T12:00:00Z,30.2791,-87.5561,22.88,1111122 
DISL,ioos:station:DISL:PPTA:1,2012-05-05T12:30:00Z,30.2791,-87.5561,22.77,1111122 
DISL,ioos:station:DISL:PPTA:1,2012-05-05T13:00:00Z,30.2791,-87.5561,22.63,1111122 
DISL,ioos:station:DISL:PPTA:1,2012-05-05T13:30:00Z,30.2791,-87.5561,23.35,1111122 
DISL,ioos:station:DISL:PPTA:1,2012-05-05T14:00:00Z,30.2791,-87.5561,23.82,1111122 
DISL,ioos:station:DISL:PPTA:1,2012-05-05T14:30:00Z,30.2791,-87.5561,24.44,1111122 
DISL,ioos:station:DISL:PPTA:1,2012-05-05T15:00:00Z,30.2791,-87.5561,25.1,1111122 
DISL,ioos:station:DISL:PPTA:1,2012-05-05T15:30:00Z,30.2791,-87.5561,25.17,1111122 
DISL,ioos:station:DISL:PPTA:1,2012-05-05T16:00:00Z,30.2791,-87.5561,25.25,1111122 
DISL,ioos:station:DISL:PPTA:1,2012-05-05T16:30:00Z,30.2791,-87.5561,25.38,1111122 
DISL,ioos:station:DISL:PPTA:1,2012-05-05T17:00:00Z,30.2791,-87.5561,25.72,1111122 
DISL,ioos:station:DISL:PPTA:1,2012-05-05T17:30:00Z,30.2791,-87.5561,25.92,1111122 
DISL,ioos:station:DISL:PPTA:1,2012-05-05T18:00:00Z,30.2791,-87.5561,25.77,1111122 
DISL,ioos:station:DISL:PPTA:1,2012-05-05T18:30:00Z,30.2791,-87.5561,25.97,1111122 
DISL,ioos:station:DISL:PPTA:1,2012-05-05T19:00:00Z,30.2791,-87.5561,26.86,1111122 
DISL,ioos:station:DISL:PPTA:1,2012-05-05T19:30:00Z,30.2791,-87.5561,27.17,1111122 
DISL,ioos:station:DISL:PPTA:1,2012-05-05T20:00:00Z,30.2791,-87.5561,27.0,1111122 
DISL,ioos:station:DISL:PPTA:1,2012-05-05T20:30:00Z,30.2791,-87.5561,27.03,1111122 
DISL,ioos:station:DISL:PPTA:1,2012-05-05T21:00:00Z,30.2791,-87.5561,27.21,1111122 
DISL,ioos:station:DISL:PPTA:1,2012-05-05T21:30:00Z,30.2791,-87.5561,26.87,1111122 
DISL,ioos:station:DISL:PPTA:1,2012-05-05T22:00:00Z,30.2791,-87.5561,26.4,1111122 
DISL,ioos:station:DISL:PPTA:1,2012-05-05T22:30:00Z,30.2791,-87.5561,26.58,1111122 
DISL,ioos:station:DISL:PPTA:1,2012-05-05T23:00:00Z,30.2791,-87.5561,25.48,1111122 
DISL,ioos:station:DISL:PPTA:1,2012-05-05T23:30:00Z,30.2791,-87.5561,25.62,1111122 
DISL,ioos:station:DISL:PPTA:1,2012-05-06T00:00:00Z,30.2791,-87.5561,25.23,1111122 
DISL,ioos:station:DISL:PPTA:1,2012-05-06T00:30:00Z,30.2791,-87.5561,25.1,1111122 
DISL,ioos:station:DISL:PPTA:1,2012-05-06T01:00:00Z,30.2791,-87.5561,24.86,1111122 
DISL,ioos:station:DISL:PPTA:1,2012-05-06T01:30:00Z,30.2791,-87.5561,25.0,1111122 
DISL,ioos:station:DISL:PPTA:1,2012-05-06T02:00:00Z,30.2791,-87.5561,24.86,1111122 
DISL,ioos:station:DISL:PPTA:1,2012-05-06T02:30:00Z,30.2791,-87.5561,24.84,1111122 
DISL,ioos:station:DISL:PPTA:1,2012-05-06T03:00:00Z,30.2791,-87.5561,24.81,1111122 
DISL,ioos:station:DISL:PPTA:1,2012-05-06T03:30:00Z,30.2791,-87.5561,24.78,1111122 
DISL,ioos:station:DISL:PPTA:1,2012-05-06T04:00:00Z,30.2791,-87.5561,24.61,1111122 
DISL,ioos:station:DISL:PPTA:1,2012-05-06T04:30:00Z,30.2791,-87.5561,24.68,1111122 
DISL,ioos:station:DISL:PPTA:1,2012-05-06T05:00:00Z,30.2791,-87.5561,24.61,1111122 
DISL,ioos:station:DISL:PPTA:1,2012-05-06T05:30:00Z,30.2791,-87.5561,24.71,1111122 
DISL,ioos:station:DISL:PPTA:1,2012-05-06T06:00:00Z,30.2791,-87.5561,24.78,1111122 
DISL,ioos:station:DISL:PPTA:1,2012-05-06T06:30:00Z,30.2791,-87.5561,24.54,1111122 
DISL,ioos:station:DISL:PPTA:1,2012-05-06T07:00:00Z,30.2791,-87.5561,24.44,1111122 
DISL,ioos:station:DISL:PPTA:1,2012-05-06T07:30:00Z,30.2791,-87.5561,24.4,1111122 
DISL,ioos:station:DISL:PPTA:1,2012-05-06T08:00:00Z,30.2791,-87.5561,24.27,1111122 
DISL,ioos:station:DISL:PPTA:1,2012-05-06T08:30:00Z,30.2791,-87.5561,23.79,1111122 
DISL,ioos:station:DISL:PPTA:1,2012-05-06T09:00:00Z,30.2791,-87.5561,23.38,1111122 
DISL,ioos:station:DISL:PPTA:1,2012-05-06T09:30:00Z,30.2791,-87.5561,22.77,1111122 
DISL,ioos:station:DISL:PPTA:1,2012-05-06T10:00:00Z,30.2791,-87.5561,22.57,1111122 
DISL,ioos:station:DISL:PPTA:1,2012-05-06T10:30:00Z,30.2791,-87.5561,22.48,1111122 
DISL,ioos:station:DISL:PPTA:1,2012-05-06T11:00:00Z,30.2791,-87.5561,22.55,1111122 
DISL,ioos:station:DISL:PPTA:1,2012-05-06T11:30:00Z,30.2791,-87.5561,22.68,1111122 
DISL,ioos:station:DISL:PPTA:1,2012-05-06T12:00:00Z,30.2791,-87.5561,22.95,1111122 
DISL,ioos:station:DISL:PPTA:1,2012-05-06T12:30:00Z,30.2791,-87.5561,23.31,1111122 
DISL,ioos:station:DISL:PPTA:1,2012-05-06T13:00:00Z,30.2791,-87.5561,24.08,1111122 
DISL,ioos:station:DISL:PPTA:1,2012-05-06T13:30:00Z,30.2791,-87.5561,25.11,1111122 
DISL,ioos:station:DISL:PPTA:1,2012-05-06T14:00:00Z,30.2791,-87.5561,25.5,1111122 
DISL,ioos:station:DISL:PPTA:1,2012-05-06T14:30:00Z,30.2791,-87.5561,25.65,1111122 
DISL,ioos:station:DISL:PPTA:1,2012-05-06T15:00:00Z,30.2791,-87.5561,26.22,1111122 
DISL,ioos:station:DISL:PPTA:1,2012-05-06T15:30:00Z,30.2791,-87.5561,26.46,1111122 
DISL,ioos:station:DISL:PPTA:1,2012-05-06T16:00:00Z,30.2791,-87.5561,26.5,1111122 
DISL,ioos:station:DISL:PPTA:1,2012-05-06T16:30:00Z,30.2791,-87.5561,26.73,1111122 
DISL,ioos:station:DISL:PPTA:1,2012-05-06T17:00:00Z,30.2791,-87.5561,27.2,1111122 
DISL,ioos:station:DISL:PPTA:1,2012-05-06T17:30:00Z,30.2791,-87.5561,27.1,1111122 
DISL,ioos:station:DISL:PPTA:1,2012-05-06T18:00:00Z,30.2791,-87.5561,26.94,1111122 
DISL,ioos:station:DISL:PPTA:1,2012-05-06T18:30:00Z,30.2791,-87.5561,27.25,1111122 
DISL,ioos:station:DISL:PPTA:1,2012-05-06T19:00:00Z,30.2791,-87.5561,27.42,1111122 
DISL,ioos:station:DISL:PPTA:1,2012-05-06T19:30:00Z,30.2791,-87.5561,27.38,1111122 
DISL,ioos:station:DISL:PPTA:1,2012-05-06T20:00:00Z,30.2791,-87.5561,27.11,1111122 
DISL,ioos:station:DISL:PPTA:1,2012-05-06T20:30:00Z,30.2791,-87.5561,27.06,1111122 
DISL,ioos:station:DISL:PPTA:1,2012-05-06T21:00:00Z,30.2791,-87.5561,27.27,1111122 
DISL,ioos:station:DISL:PPTA:1,2012-05-06T21:30:00Z,30.2791,-87.5561,27.03,1111122 
DISL,ioos:station:DISL:PPTA:1,2012-05-06T22:00:00Z,30.2791,-87.5561,27.01,1111122 
DISL,ioos:station:DISL:PPTA:1,2012-05-06T22:30:00Z,30.2791,-87.5561,25.96,1111122 
DISL,ioos:station:DISL:PPTA:1,2012-05-06T23:00:00Z,30.2791,-87.5561,25.01,1111122 
DISL,ioos:station:DISL:PPTA:1,2012-05-06T23:30:00Z,30.2791,-87.5561,22.87,1111122 
DISL,ioos:station:DISL:PPTA:1,2012-05-07T00:00:00Z,30.2791,-87.5561,22.55,1111122 